Tracking 27428 objects as of 31-May-2023
HD Live streaming from Space Station
objects crossing your sky now

OPS 9332 (IDSCS 17)

Track OPS 9332 (IDSCS 17) now!
OPS 9332 (IDSCS 17) is classified as:


NORAD ID: 2863
Int'l Code: 1967-066B
Perigee: 33,048.1 km
Apogee: 33,540.9 km
Inclination: 0.8 °
Period: 1,310.3 minutes
Semi major axis: 39665 km
RCS: 0.6309 m2 (medium)
Launch date: July 1, 1967
Source: United States (US)
Launch site: AIR FORCE EASTERN TEST RANGE (AFETR)
Your satellite tracking list
Your tracking list is empty




NASA's NSSDC Master Catalog

Two Line Element Set (TLE):
1 02863U 67066B   23150.47433972 -.00000030  00000-0  00000-0 0  9998
2 02863   0.7958 181.7476 0062114 135.0957 267.3039  1.09896527112481
Source of the keplerian elements: AFSPC